[[{"header":{"parameterUnit":"m.s-1","parameterCategory":1,"la1":30.2991,"la2":30.254,"lo1":-89.0895,"lo2":-89.0444,"dy":0.0017,"dx":0.0017,"nx":28,"ny":28,"refTime":"2024-06-17T21:00:00:Z","depth":0,"parameterNumber":2,"parameterNumberName":"U-component_of_WINDS"},"data":[0,0,0,0,0,0,0,0,0,0,0,0,0,0,0,0,0,0,0,0,0,0,0,0,0,0,0,0,0,0,0,0,0,0,0,0,0,0,0,0,0,0,0,0,0,0,0,0,0,0,0,0,0,0,0,0,0,0,-6.422,-6.4221,0,-6.4279,-6.4279,-6.428,-6.4099,-6.4093,-6.4088,-6.4083,-6.4139,-6.4146,-6.4152,0,0,0,0,0,0,0,0,0,0,0,0,0,-6.3948,-6.3954,-6.422,-6.4221,-6.4222,-6.4279,-6.4279,-6.428,-6.41,-6.4093,-6.4086,-6.408,-6.4137,-6.4145,-6.4153,0,0,0,0,0,0,0,0,0,0,0,0,0,-6.4042,-6.3956,-6.422,-6.4139,-6.4132,-6.4278,-6.4279,-6.428,-6.4101,-6.4093,-6.4085,-6.4077,-6.4135,-6.4144,-6.4154,-6.4381,0,0,-6.4185,-6.4189,0,0,0,0,0,0,0,0,-6.4037,-6.4053,-6.415,-6.4144,-6.4137,-6.4173,-6.4204,-6.4314,-6.4103,-6.4113,-6.4082,-6.4073,-6.4157,-6.4165,-6.4194,-6.4384,-6.4386,-6.4185,-6.4192,-6.4196,-6.4199,0,0,0,0,0,0,0,-6.4031,-6.4049,-6.4243,-6.4151,-6.4144,-6.4098,-6.4102,-6.4224,-6.418,-6.4111,-6.4098,-6.4108,-6.4152,-6.4185,-6.4194,-6.4387,-6.4185,-6.4194,-6.42,-6.4204,-6.4764,-6.4773,0,0,0,0,0,0,-6.4036,-6.4045,-6.4241,-6.4245,-6.4066,-6.4109,-6.4114,-6.417,-6.4179,-6.4172,-6.4115,-6.4099,-6.4172,-6.4182,-6.4195,-6.4459,-6.4196,-6.4205,-6.4211,-6.4755,-6.4766,-6.4776,0,0,0,0,0,0,-6.403,-6.4055,-6.4239,-6.4141,-6.4161,-6.4123,-6.4187,-6.4175,-6.4207,-6.4181,-6.4172,-6.4156,-6.4165,-6.4181,-6.4336,-6.4459,-6.421,-6.4219,-6.4745,-6.4759,-6.4771,-6.4992,0,0,0,0,0,0,-6.4023,-6.4054,-6.4141,-6.4145,-6.4167,-6.4381,-6.4195,-6.4182,-6.4226,-6.4206,-6.4218,-6.4212,-6.416,-6.4322,-6.4346,-6.4468,-6.4226,-6.4734,-6.4751,-6.4767,-6.4974,-6.5011,-6.5044,0,0,0,0,0,-6.4014,-6.42,-6.4146,-6.4171,-6.4275,-6.4388,-6.4401,-6.4338,-6.4236,-6.4322,-6.4305,-6.4212,-6.4443,-6.434,-6.4365,-6.4492,-6.4726,-6.4746,-6.4766,-6.4958,-6.5004,-6.5043,0,0,0,0,0,0,-6.4211,-6.4199,-6.4139,-6.4332,-6.4363,-6.4357,-6.4464,-6.4389,-6.4448,-6.4427,-6.4346,-6.435,-6.452,-6.4521,-6.4407,-6.4711,-6.4566,-6.4592,-6.4704,-6.4747,-6.4782,-6.4777,-6.4235,0,0,0,0,0,-6.4277,-6.4371,-6.4355,-6.4527,-6.4546,-6.4503,-6.455,-6.4499,-6.4527,-6.4538,-6.4533,-6.4562,-6.4641,-6.4694,-6.4766,-6.4974,-6.4972,-6.5074,-6.5109,-6.5138,-6.516,-6.5269,-6.5313,-6.4842,-6.4841,-6.4841,0,0,-6.4414,-6.4419,-6.4483,-6.4567,-6.4584,-6.4682,-6.4515,-6.4625,-6.4696,-6.4555,-6.47,-6.4698,-6.4725,-6.4908,-6.4987,-6.4914,-6.5291,-6.5163,-6.5186,-6.5193,-6.5294,-6.5338,-6.5378,-6.4855,-6.4853,-6.4851,0,0,-6.4712,-6.4727,-6.4871,-6.4892,-6.4921,-6.4892,-6.4927,-6.4933,-6.4926,-6.5072,-6.4967,-6.505,-6.5188,-6.5211,-6.5241,-6.555,-6.5465,-6.5576,-6.5758,-6.5864,-6.5901,-6.5934,-6.6042,-6.6082,-6.5599,-6.5599,-6.56,0,-6.4878,-6.5022,-6.4954,-6.5072,-6.5111,-6.4989,-6.5133,-6.5157,-6.5208,-6.5237,-6.5154,-6.5324,-6.5334,-6.552,-6.5595,-6.5624,-6.566,-6.5573,-6.5902,-6.5934,-6.5963,-6.6065,-6.6106,-6.5612,-6.5611,-6.561,-6.5608,0,-6.5223,-6.5325,-6.5438,-6.5491,-6.5543,-6.5674,-6.5624,-6.5685,-6.563,-6.5609,-6.5758,-6.5766,-6.5836,-6.5877,-6.5824,-6.6055,-6.6008,-6.5916,-6.5768,-6.6022,-6.6117,-6.6155,-6.5631,-6.5626,-6.5623,-6.5619,0,0,-6.5646,-6.566,-6.5703,-6.5725,-6.5748,-6.5825,-6.595,-6.6019,-6.6072,-6.6111,-6.6212,-6.6333,-6.6247,-6.6281,-6.623,-6.6325,-6.6566,-6.622,-6.6219,-6.6282,-6.6818,-6.6886,-6.6933,-6.6511,-6.6518,-6.6524,-6.6815,0,-6.5938,-6.6152,-6.6095,-6.6308,-6.64,-6.6286,-6.6394,-6.642,-6.6404,-6.6478,-6.646,-6.6545,-6.6427,-6.6447,-6.6535,-6.6518,-6.6672,-6.6497,-6.6602,-6.6607,-6.6597,-6.6982,-6.7054,-6.7329,-6.6852,-6.6858,-6.6863,0,-6.6307,-6.6362,-6.6585,-6.6593,-6.6629,-6.6728,-6.6786,-6.686,-6.6886,-6.6867,-6.6907,-6.6837,-6.6958,-6.6812,-6.6977,-6.6859,-6.6899,-6.6897,-6.6906,-6.6912,-6.6749,-6.6996,-6.7415,-6.7456,-6.6921,-6.6916,-6.6912,0,-6.659,-6.6719,-6.6869,-6.6892,-6.6905,-6.6977,-6.6986,-6.7004,-6.7049,-6.7101,-6.7129,-6.7194,-6.7229,-6.728,-6.7229,-6.7128,-6.7402,-6.7251,-6.7388,-6.739,-6.7448,-6.7445,-6.7878,-6.7479,-6.7479,-6.7478,-6.7477,0,-6.692,-6.7061,-6.6996,-6.7088,-6.7241,-6.7174,-6.7327,-6.7322,-6.734,-6.7428,-6.7334,-6.7418,-6.7347,-6.7424,-6.7385,-6.7527,-6.7544,-6.7531,-6.7518,-6.7538,-6.754,-6.7561,-6.754,-6.7489,-6.7486,-6.7484,-6.7482,0,-6.7261,-6.7224,-6.7379,-6.7379,-6.7383,-6.7496,-6.7495,-6.7579,-6.7557,-6.767,-6.7692,-6.7657,-6.7743,-6.7698,-6.7788,-6.7761,-6.7944,-6.7907,-6.7936,-6.7925,-6.8063,-6.805,-6.8522,-6.858,-6.8148,-6.8152,-6.8155,0,-6.7473,-6.7578,-6.7591,-6.7643,-6.7659,-6.7745,-6.7791,-6.7729,-6.7781,-6.7819,-6.7898,-6.7977,-6.8036,-6.818,-6.8161,-6.8229,-6.8191,-6.8353,-6.8201,-6.8217,-6.8191,-6.8184,-6.8193,-6.8382,-6.8387,-6.8391,-6.8395,0,-6.7852,-6.7829,-6.79,-6.7965,-6.8023,-6.8071,-6.811,-6.8158,-6.8097,-6.816,-6.8248,-6.8294,-6.8386,-6.8465,-6.8523,-6.853,-6.8453,-6.8443,-6.8478,-6.8497,-6.8509,-6.8502,-6.8016,-6.8432,-6.8428,-6.8425,-6.8423,-6.8422,-6.8133,-6.8221,-6.8243,-6.8325,-6.8349,-6.8388,-6.8467,-6.8455,-6.8528,-6.8598,-6.8557,-6.866,-6.8683,-6.8754,-6.8772,-6.885,-6.8786,-6.8837,-6.8849,-6.8862,-6.8879,-6.8499,-6.8861,-6.886,-6.8859,-6.8858,-6.8857,0,-6.8505,-6.8515,-6.8591,-6.865,-6.8714,-6.8637,-6.8677,-6.8735,-6.8827,-6.8856,-6.8917,-6.9018,-6.9094,-6.9082,-6.9151,-6.9216,-6.9182,-6.9236,-6.9229,-6.9232,-6.8934,-6.8896,-6.9263,-6.9263,-6.9262,-6.9262,-6.9262,-6.9262,-6.8706,-6.885,-6.883,-6.8984,-6.8992,-6.9093,-6.9122,-6.9157,-6.918,-6.9297,-6.936,-6.9353,-6.9365,-6.9434,-6.95,-6.9494,-6.9523,-6.959,-6.9571,-6.9293,-6.9253,-6.9215,-6.9178,-6.9598,-6.9598,-6.9861,-6.9864,-6.9866]},{"header":{"parameterUnit":"m.s-1","parameterCategory":1,"la1":30.2991,"la2":30.254,"lo1":-89.0895,"lo2":-89.0444,"dy":0.0017,"dx":0.0017,"nx":28,"ny":28,"refTime":"2024-06-17T21:00:00:Z","depth":0,"parameterNumber":3,"parameterNumberName":"V-component_of_WINDS"},"data":[0,0,0,0,0,0,0,0,0,0,0,0,0,0,0,0,0,0,0,0,0,0,0,0,0,0,0,0,0,0,0,0,0,0,0,0,0,0,0,0,0,0,0,0,0,0,0,0,0,0,0,0,0,0,0,0,0,0,-0.7355,-0.7356,0,-0.7425,-0.7426,-0.7427,-0.753,-0.7532,-0.7534,-0.7535,-0.7601,-0.7601,-0.7601,0,0,0,0,0,0,0,0,0,0,0,0,0,-0.7307,-0.7307,-0.7355,-0.7356,-0.7357,-0.7425,-0.7426,-0.7427,-0.753,-0.7532,-0.7534,-0.7536,-0.7601,-0.7601,-0.7601,0,0,0,0,0,0,0,0,0,0,0,0,0,-0.7347,-0.7307,-0.7355,-0.7417,-0.7423,-0.7425,-0.7426,-0.7427,-0.7529,-0.7532,-0.7535,-0.7537,-0.7601,-0.7601,-0.7601,-0.7547,0,0,-0.7602,-0.7602,0,0,0,0,0,0,0,0,-0.7344,-0.7349,-0.7407,-0.7412,-0.7419,-0.7472,-0.7433,-0.7467,-0.7528,-0.7488,-0.7535,-0.7538,-0.7556,-0.756,-0.7567,-0.755,-0.7553,-0.7602,-0.7602,-0.7602,-0.7602,0,0,0,0,0,0,0,-0.7342,-0.7346,-0.7383,-0.7407,-0.7415,-0.7439,-0.7448,-0.744,-0.7506,-0.7492,-0.75,-0.7507,-0.756,-0.7566,-0.7569,-0.7554,-0.7602,-0.7602,-0.7602,-0.7602,-0.7496,-0.7493,0,0,0,0,0,0,-0.733,-0.7343,-0.7381,-0.7385,-0.7388,-0.7438,-0.7448,-0.7452,-0.7506,-0.7517,-0.7505,-0.7512,-0.7565,-0.7569,-0.7571,-0.751,-0.7602,-0.7602,-0.7602,-0.7499,-0.7495,-0.7492,0,0,0,0,0,0,-0.7329,-0.7333,-0.7378,-0.7366,-0.7374,-0.7436,-0.744,-0.7452,-0.7459,-0.7516,-0.7527,-0.75,-0.7567,-0.7571,-0.7553,-0.7514,-0.7602,-0.7602,-0.7502,-0.7498,-0.7494,-0.7388,0,0,0,0,0,0,-0.7327,-0.7332,-0.7312,-0.7365,-0.7374,-0.7358,-0.7438,-0.7451,-0.7459,-0.7469,-0.7514,-0.7524,-0.7569,-0.7552,-0.7553,-0.7516,-0.7602,-0.7506,-0.75,-0.7495,-0.7395,-0.738,-0.7368,0,0,0,0,0,-0.7325,-0.7279,-0.7311,-0.7315,-0.7352,-0.7356,-0.7361,-0.7416,-0.7456,-0.7436,-0.7473,-0.7522,-0.7519,-0.7549,-0.7551,-0.7513,-0.7509,-0.7502,-0.7496,-0.7401,-0.7383,-0.7368,0,0,0,0,0,0,-0.7217,-0.7287,-0.7323,-0.7293,-0.7318,-0.7373,-0.735,-0.7395,-0.7408,-0.7417,-0.7483,-0.7492,-0.7464,-0.7488,-0.752,-0.7464,-0.7521,-0.7515,-0.7449,-0.7432,-0.7419,-0.7413,-0.7602,0,0,0,0,0,-0.7191,-0.719,-0.725,-0.7218,-0.7229,-0.7287,-0.7291,-0.7332,-0.736,-0.737,-0.7406,-0.7429,-0.7434,-0.7435,-0.7442,-0.74,-0.741,-0.7375,-0.7362,-0.735,-0.7343,-0.7321,-0.7306,-0.7471,-0.7471,-0.7471,0,0,-0.7134,-0.7172,-0.7167,-0.7197,-0.7221,-0.7217,-0.7295,-0.7288,-0.7285,-0.7369,-0.7353,-0.738,-0.7411,-0.738,-0.7368,-0.7398,-0.73,-0.7342,-0.7333,-0.7332,-0.7313,-0.7297,-0.7283,-0.7467,-0.7468,-0.7468,0,0,-0.7029,-0.7059,-0.7034,-0.7058,-0.7095,-0.7134,-0.7128,-0.7178,-0.7199,-0.7185,-0.7247,-0.7245,-0.7251,-0.7271,-0.7281,-0.7185,-0.7231,-0.7186,-0.7114,-0.7092,-0.7079,-0.7068,-0.7031,-0.7018,-0.7179,-0.7179,-0.7179,0,-0.6953,-0.6952,-0.7016,-0.7005,-0.7015,-0.7094,-0.7068,-0.7088,-0.7123,-0.7128,-0.7163,-0.7173,-0.7199,-0.7173,-0.715,-0.7157,-0.715,-0.7179,-0.7076,-0.7065,-0.7056,-0.7022,-0.7008,-0.7173,-0.7174,-0.7174,-0.7175,0,-0.6856,-0.6855,-0.683,-0.6865,-0.6874,-0.6855,-0.6915,-0.6915,-0.6956,-0.6991,-0.6975,-0.7011,-0.7026,-0.7024,-0.7062,-0.7003,-0.702,-0.7064,-0.7123,-0.7033,-0.7002,-0.699,-0.7165,-0.7167,-0.7169,-0.717,0,0,-0.6682,-0.6755,-0.6744,-0.6761,-0.6808,-0.6807,-0.6792,-0.681,-0.6808,-0.6831,-0.6818,-0.6823,-0.6865,-0.6877,-0.6919,-0.69,-0.6819,-0.6946,-0.6948,-0.6919,-0.6753,-0.6717,-0.6701,-0.6851,-0.6849,-0.6847,-0.675,0,-0.6584,-0.6564,-0.6622,-0.6586,-0.6584,-0.666,-0.6647,-0.6674,-0.6707,-0.6709,-0.6746,-0.6747,-0.6803,-0.6811,-0.6796,-0.6832,-0.6786,-0.684,-0.6838,-0.6837,-0.6824,-0.6686,-0.6648,-0.6554,-0.6739,-0.6737,-0.6735,0,-0.6466,-0.6485,-0.6449,-0.6499,-0.6501,-0.6488,-0.6508,-0.651,-0.6542,-0.6568,-0.6582,-0.6632,-0.6619,-0.6678,-0.6661,-0.6696,-0.6699,-0.6717,-0.6715,-0.6714,-0.6778,-0.6678,-0.6526,-0.651,-0.6717,-0.6719,-0.672,0,-0.6339,-0.6356,-0.6337,-0.6349,-0.6407,-0.6396,-0.642,-0.6455,-0.6461,-0.6479,-0.6484,-0.6499,-0.6506,-0.6516,-0.6568,-0.6607,-0.6544,-0.6608,-0.6562,-0.6561,-0.6543,-0.6542,-0.6385,-0.655,-0.655,-0.655,-0.655,0,-0.6221,-0.6196,-0.6281,-0.6268,-0.6242,-0.6309,-0.6281,-0.6312,-0.6342,-0.6336,-0.6403,-0.6395,-0.6466,-0.6466,-0.6507,-0.6485,-0.6489,-0.6508,-0.6518,-0.65,-0.6497,-0.65,-0.6506,-0.6546,-0.6547,-0.6548,-0.6549,0,-0.6073,-0.6129,-0.6113,-0.6171,-0.6185,-0.6162,-0.6211,-0.6201,-0.624,-0.6232,-0.6234,-0.6293,-0.6297,-0.6351,-0.6366,-0.6394,-0.6354,-0.6379,-0.6343,-0.635,-0.6301,-0.6303,-0.6137,-0.6118,-0.6297,-0.6295,-0.6294,0,-0.5992,-0.5975,-0.6032,-0.6033,-0.6054,-0.6056,-0.6064,-0.613,-0.6134,-0.617,-0.6155,-0.6165,-0.6176,-0.6178,-0.6222,-0.6233,-0.6256,-0.6198,-0.6258,-0.624,-0.6252,-0.6251,-0.6249,-0.6183,-0.6181,-0.6179,-0.6178,0,-0.5842,-0.5872,-0.5881,-0.59,-0.5909,-0.5926,-0.5948,-0.5945,-0.6018,-0.602,-0.6025,-0.6034,-0.605,-0.6058,-0.6078,-0.61,-0.6149,-0.6159,-0.6149,-0.6128,-0.6107,-0.6115,-0.6305,-0.6161,-0.6163,-0.6164,-0.6165,-0.6166,-0.5724,-0.5712,-0.575,-0.5758,-0.5782,-0.5802,-0.5795,-0.5835,-0.5841,-0.586,-0.5899,-0.5898,-0.5931,-0.5963,-0.5981,-0.5981,-0.6011,-0.5996,-0.5992,-0.5986,-0.5975,-0.611,-0.5985,-0.5985,-0.5986,-0.5986,-0.5987,0,-0.5575,-0.5604,-0.5611,-0.5641,-0.5647,-0.5697,-0.5724,-0.5725,-0.5725,-0.5752,-0.5762,-0.5768,-0.5777,-0.5822,-0.5835,-0.5826,-0.5848,-0.5826,-0.5826,-0.583,-0.5949,-0.5956,-0.5808,-0.5808,-0.5808,-0.5808,-0.5808,-0.5808,-0.5498,-0.548,-0.5513,-0.5508,-0.5537,-0.5538,-0.5549,-0.5567,-0.5589,-0.5593,-0.5601,-0.5632,-0.5666,-0.5683,-0.5692,-0.5705,-0.5705,-0.5675,-0.5695,-0.5805,-0.5822,-0.5838,-0.5844,-0.5675,-0.5675,-0.5576,-0.5575,-0.5574]}]]